FW6809 Weather Reports


Display with metric or nautical units.
time (UTC)temp
F
wind
direction
speed
MPH
gust
MPH
rain 1hr
in
rain 24hr
in
rain mn
in
humidity
%
barometer
mb
20260506001548 65 0 0.0 0.0 0.00 0.00 0.00 75 1014.9
20260506000052 67 0 0.0 0.0 0.00 0.00 0.00 71 1014.7
20260505234548 68 0 0.0 0.0 0.00 0.00 0.00 72 1015.0
20260505233045 69 0 0.0 0.0 0.00 0.00 0.00 69 1015.0
20260505231545 70 0 0.0 0.0 0.00 0.00 0.00 68 1014.8
20260505224551 71 0 0.0 0.0 0.00 0.00 0.00 57 1014.7
20260505223056 72 0 0.0 0.0 0.00 0.00 0.00 60 1014.9
20260505221548 74 0 0.0 0.0 0.00 0.00 0.00 51 1015.2
20260505220052 74 0 0.0 0.0 0.00 0.00 0.00 50 1015.2
20260505214548 74 0 0.0 2.0 0.00 0.00 0.00 46 1014.9
20260505213056 74 191 0.0 2.0 0.00 0.00 0.00 49 1015.0
20260505211550 74 145 0.0 3.0 0.00 0.00 0.00 46 1015.0
20260505210051 75 259 1.0 5.0 0.00 0.00 0.00 45 1015.1
20260505204553 75 276 0.0 4.0 0.00 0.00 0.00 44 1015.0
20260505203100 75 158 1.0 7.0 0.00 0.00 0.00 43 1015.1
20260505201548 75 140 1.0 5.0 0.00 0.00 0.00 45 1015.1
20260505200054 75 0 0.0 4.0 0.00 0.00 0.00 45 1015.2
20260505194612 74 257 1.0 4.0 0.00 0.00 0.00 47 1015.4
20260505193052 75 0 0.0 2.0 0.00 0.00 0.00 48 1015.7
20260505191601 75 271 0.0 4.0 0.00 0.00 0.00 46 1015.9
20260505190056 74 174 0.0 3.0 0.00 0.00 0.00 46 1016.2
20260505184552 76 268 2.0 3.0 0.00 0.00 0.00 42 1016.3
20260505183101 76 255 1.0 4.0 0.00 0.00 0.00 44 1016.3
20260505181555 75 218 1.0 5.0 0.00 0.00 0.00 47 1016.1
20260505180056 75 221 1.0 5.0 0.00 0.00 0.00 44 1016.7
20260505174557 74 88 2.0 6.0 0.00 0.00 0.00 49 1016.9
20260505173100 74 118 2.0 5.0 0.00 0.00 0.00 50 1017.3
20260505171548 75 310 2.0 7.0 0.00 0.00 0.00 49 1017.4
20260505170057 74 142 1.0 4.0 0.00 0.00 0.00 54 1017.5
20260505164601 73 283 1.0 7.0 0.00 0.00 0.00 48 1017.5
20260505163056 73 186 1.0 6.0 0.00 0.00 0.00 51 1017.3
20260505161550 74 283 1.0 5.0 0.00 0.00 0.00 46 1017.4
20260505153105 73 127 0.0 1.0 0.00 0.00 0.00 55 1017.4
20260505151557 73 0 1.0 2.0 0.00 0.00 0.00 56 1017.4
20260505124552 58 0 0.0 0.0 0.00 0.00 0.00 88 1016.9
20260505123050 56 0 0.0 0.0 0.00 0.00 0.00 91 1016.8
20260505121550 54 0 0.0 0.0 0.00 0.00 0.00 93 1016.8
20260505120054 51 0 0.0 0.0 0.00 0.00 0.00 93 1016.7
20260505114553 50 0 0.0 0.0 0.00 0.00 0.00 93 1016.6
20260505113055 49 0 0.0 0.0 0.00 0.00 0.00 92 1016.4
20260505111554 49 0 0.0 0.0 0.00 0.00 0.00 91 1016.1
20260505101549 51 0 0.0 0.0 0.00 0.00 0.00 86 1015.6
20260505100054 52 0 0.0 0.0 0.00 0.00 0.00 84 1015.8
20260505094553 52 0 0.0 0.0 0.00 0.00 0.00 83 1016.0
20260505093051 53 0 0.0 0.0 0.00 0.00 0.00 81 1015.9
20260505091559 54 0 0.0 0.0 0.00 0.00 0.00 80 1015.9
20260505090101 55 0 0.0 0.0 0.00 0.00 0.00 78 1015.8
20260505084601 54 0 0.0 0.0 0.00 0.00 0.00 79 1016.1
20260505083100 53 0 0.0 0.0 0.00 0.00 0.00 83 1016.0
20260505081601 51 0 0.0 0.0 0.00 0.00 0.00 87 1016.1
20260505080050 50 0 0.0 1.0 0.00 0.00 0.00 90 1016.1
20260505074607 50 0 0.0 0.0 0.00 0.00 0.00 90 1016.2
20260505073053 50 0 0.0 0.0 0.00 0.00 0.00 90 1016.1
20260505071551 50 0 0.0 0.0 0.00 0.00 0.00 90 1016.2
20260505070052 50 0 0.0 0.0 0.00 0.00 0.00 90 1016.1
20260505064550 51 0 0.0 0.0 0.00 0.00 0.00 89 1016.1
20260505063052 51 0 0.0 0.0 0.00 0.00 0.00 88 1016.2
20260505061615 51 0 0.0 0.0 0.00 0.00 0.00 87 1016.4
20260505060053 52 0 0.0 0.0 0.00 0.00 0.00 86 1016.5
20260505054603 52 0 0.0 0.0 0.00 0.00 0.00 86 1016.6
20260505053051 52 0 0.0 0.0 0.00 0.00 0.00 85 1016.5
20260505051552 53 0 0.0 0.0 0.00 0.00 0.00 84 1016.6
20260505041554 58 0 0.0 0.0 0.00 0.00 0.00 76 1016.3
20260505040100 58 0 0.0 0.0 0.00 0.00 0.00 72 1016.4
20260505034549 56 0 0.0 0.0 0.00 0.00 0.00 76 1016.5
20260505033053 56 0 0.0 0.0 0.00 0.00 0.00 79 1016.6
20260505031548 56 0 0.0 0.0 0.00 0.00 0.00 80 1016.6
20260505030053 57 0 0.0 0.0 0.00 0.00 0.00 80 1016.5
20260505024607 57 0 0.0 0.0 0.00 0.00 0.00 78 1016.5
20260505023050 57 0 0.0 0.0 0.00 0.00 0.00 80 1016.4
20260505021609 57 0 0.0 0.0 0.00 0.00 0.00 83 1016.3
20260505020049 57 0 0.0 0.0 0.00 0.00 0.00 84 1016.2
20260505014549 57 0 0.0 0.0 0.00 0.00 0.00 85 1016.0
20260505013052 57 0 0.0 0.0 0.00 0.00 0.00 85 1015.9
20260505011557 58 0 0.0 0.0 0.00 0.00 0.00 85 1015.7
20260505010050 59 0 0.0 0.0 0.00 0.00 0.00 83 1015.7
20260505004549 60 0 0.0 0.0 0.00 0.00 0.00 83 1015.6
20260505003054 62 0 0.0 0.0 0.00 0.00 0.00 80 1015.4